User: anonymous   Login
Location: Central Coast
(33.3208°S, 151.2336°E)
Time: 04:46:49
(UTC+11:00)
Language:

Tiangong 2 - Orbit

View from above orbital plane
View from above orbital plane
View from above satellite
View from above satellite

Ground track
Ground track

The orbit data is extracted from the following two-line orbital elements,

1 41765U 16057A   18023.16519492  .00004366  00000-0  56701-4 0  9995
2 41765  42.7833 127.1672 0004258 314.8222 116.9364 15.60180561 77321
Epoch (UTC): 23 January 2018 03:57:52
Eccentricity: 0.0004258
inclination: 42.7833°
perigee height: 384 km
apogee height: 390 km
right ascension of ascending node: 127.1672°
argument of perigee: 314.8222°
revolutions per day: 15.60180561
mean anomaly at epoch: 116.9364°
orbit number at epoch: 7732

The dashed part of the orbit path shows where the satellite is in the earth's shadow,  

DLR